Tracking 22879 objects as of 21-Apr-2021
HD Live streaming from Space Station
objects crossing your sky now

COSMOS 1420

Track COSMOS 1420 now!
10-day predictions
COSMOS 1420 is classified as:


NORAD ID: 13648
Int'l Code: 1982-109A
Perigee: 771.0 km
Apogee: 800.9 km
Inclination: 74.0 °
Period: 100.4 minutes
Semi major axis: 7156 km
RCS: 2.7828 m2 (large)
Launch date: November 11, 1982
Source: Commonwealth of Independent States (former USSR) (CIS)
Launch site: PLESETSK MISSILE AND SPACE COMPLEX (PKMTR)
aabbcc
Your satellite tracking list
Your tracking list is empty




NASA's NSSDC Master Catalog

Two Line Element Set (TLE):
1 13648U 82109A   21110.92137238  .00000019  00000-0  16485-4 0  9990
2 13648  73.9966  38.3683 0020932 226.8885 133.0516 14.33877192  9609
Source of the keplerian elements: AFSPC